User: anonymous   Login
Location: Unspecified
(0.0000°N, 0.0000°E)
Time: 19:13:13
(UTC+02:00)
Language:

SeaSat 1 - Orbit

View from above orbital plane
View from above orbital plane
View from above satellite
View from above satellite

Ground track
Ground track

The orbit data is extracted from the following two-line orbital elements,

1 10967U 78064A   15143.84671005  .00000100  00000-0  70077-4 0  9999
2 10967 107.9962 161.8954 0001187 246.0139 114.0881 14.43387690937608
Epoch (UTC): 23 May 2015 20:19:15
Eccentricity: 0.0001187
inclination: 107.9962°
perigee height: 746 km
apogee height: 748 km
right ascension of ascending node: 161.8954°
argument of perigee: 246.0139°
revolutions per day: 14.43387690
mean anomaly at epoch: 114.0881°
orbit number at epoch: 93760

The dashed part of the orbit path shows where the satellite is in the earth's shadow,  

DLR